Погода в Успенье

Россия / Орловская область     52°38′27″N   37°46′31″E
темп.,
°C
ветер,
м/с
пор.,
м/с
влажн.,
%
обл.,
%
осадки,
мм/ч
давл.,
гПа
погр.,
м
28 ноября, вс
вс2800:00+2ю5129899 0.1 1005301
03:00+3ю5129898 0.1 1005318
06:00+4ююз41098100 0.0 1005380
09:00+4ююз3898100 0.0 1006209
12:00+5юз379698 0.0 1008282
15:00+5юз249357 0.0 1009131
18:00+4ю359398 0.0 100972
21:00+5ююв4791100 0.0 1010233
29 ноября, пн
пн2900:00+5ююв4887100 0.0 1009312
03:00+4юв51194100 0.0 1008250
06:00+4вюв51098100 0.0 1004255
09:00+6вюв71598100 5.4 1001545
12:00+6ююв51299100 2.6 998457
15:00+8ю61398100 2.7 997514
18:00+8ююв51296100 0.2 995474
21:00+7вюв51198100 1.2 990431
30 ноября, вт
вт3000:00+9ююв61398100 7.8 983604
03:00+9ююз91883100 11.6 9791197
06:00+8юз131989100 3.5 9781311
09:00+1юз152395100 6.6 9841152
12:00+1юз142287100 1.3 9871219
15:00+1зюз131978100 1.4 9891122
18:00+1юз101779100 0.0 9911228
21:000юз9168075 0.1 9911208
1 декабря, ср
ср100:00−1юз8138384 0.1 991831
03:00−1зюз8128391 0.2 9921120
06:00−2зюз81281100 0.1 9911039
09:00−2зюз71192100 0.4 993946
12:00−2з81191100 0.8 995944
15:00−3з81291100 1.5 996944
18:00−3з81291100 0.5 998844
21:00−4зсз71283100 0.6 1000773
2 декабря, чт
чт200:00−4зсз6978100 0.1 1002792
03:00−6з4108720 0.1 1004514
06:00−6зюз498859 0.0 1006410
09:00−4ююз41088100 0.0 1006374
12:00−2ююз71485100 0.0 1005638
15:00−1ююз81696100 1.4 1004680
18:00+1юз71597100 0.5 1004633
21:000юз71590100 0.5 1005475